Log in  \/ 
x
x

Montgomery Operations

Montgomery Operations for Plus One Flyers is located at: Gibbs Flying Service, 3717 John J Montgomery Dr, San Diego, CA 92123

We have completed a remodel of the Plus One Flyers office space and now we have a computer room with 3 new computers, 2 new copier/ printers on line. We also have a classroom/ meeting room with no simulators, and the Elite and Redbird sims have moved to the old computer area. 

Come take a look, its really nice and very user friendly.

BE Safe

Dave Eby

Additional info
  • Operations Officer: Dave Eby
  • Phone Number: 619-279-7499
  • E-Mail: myfops@plusoneflyers.org
Comments

People in this conversation

  • Annette Goff

    Kind of miss that link to the NOAA three day weather history. Makes for better flight planning and is a good tool. Just a thought.

Leave your comments

0 Character restriction
Your text should be more than 10 characters
terms and condition.
Special Instructions

None

Montgomery Weather

[source: ADDS]
METAR
KMYF 182153Z 23006KT 10SM CLR 26/08 A3002 RMK AO2 SLP162 T02610078 =
KNKX 182155Z 20006KT 10SM SCT250 28/08 A3002 RMK AO2 SLP159 T02830083 $ =
TAF
TAF KNKX 1821/1921 25008KT 9999 SCT250 QNH2999INS BECMG 1904/1906 VRB05KT 4800 BR BKN005 QNH2999INS TEMPO 1909/1915 OVC015 FM191630 VRB05KT 9999 SCT025 QNH3001INS BECMG 1919/1921 27008KT SCT025 QNH2995INS T28/1821Z T09/1914Z =
SR / SS: 14:50 / 01:08 UTC ( 2018-01-18)

Montgomery Operations Map